Flag Weather past 2 weeks in Bratislava, Slovakia

Now
34 °F

Overcast.


Feels Like: 25 °F
Forecast: 31 / 35 °F
Wind: 13 mph from Southeast

Location: Bratislava Ivanka

Current Time: Nov 27, 2014 at 10:00:50 PM

Latest Report: Nov 27, 2014 at 9:30 PM


Visibility: 4 mi

Pressure: 30.07 "Hg

Humidity: 87%

Dew point: 30 °F

Location of BratislavaLocation

Historic Weather in Bratislava — Graph

°F

Bratislava temperature yesterday

Maximum temperature yesterday: 39 °F (at 11:00 AM)
Minimum temperature yesterday: 36 °F (at 5:30 AM)
Average temperature yesterday: 38 °F

Past Weeks' High & Low Weather Summary

 TemperatureHumidityPressure
High61 °F (Nov 13, 1:00 PM)100% (Nov 19, 8:00 AM)30.42 "Hg (Nov 19, 8:00 AM)
Low34 °F (Nov 21, 7:00 AM)59% (Nov 13, 12:30 PM)29.74 "Hg (Nov 16, 4:00 AM)
Average44 °F85%30.10 "Hg
* Reported Nov 12 9:00 PM — Nov 27 9:00 PM, Bratislava, Weather by CustomWeather, © 2014

Note: Actual official high and low records may vary slightly from our data, if they occured in-between our weather recording intervals... More about our weather records

Advertising

Bratislava weather history for previous 24 hours

 ConditionsComfort  
Time TempWeatherWind HumidityBarometerVisibility
9:00 PM
Nov 27
34 °FOvercast.13 mph87%30.07 "Hg4 mi
8:30 PM34 °FOvercast.13 mph87%30.07 "Hg4 mi
8:00 PM34 °FOvercast.14 mph87%30.07 "Hg4 mi
7:30 PM34 °FOvercast.15 mph87%30.07 "Hg4 mi
7:00 PM34 °FPartly cloudy.15 mph87%30.07 "Hg4 mi
6:30 PM36 °FMostly cloudy.14 mph81%30.07 "Hg4 mi
6:00 PM36 °FPassing clouds.15 mph81%30.07 "Hg4 mi
5:30 PM36 °FPassing clouds.12 mph81%30.07 "Hg5 mi
5:00 PM36 °FPartly cloudy.16 mph75%30.07 "Hg5 mi
4:30 PM36 °FPartly cloudy.15 mph75%30.07 "Hg5 mi
4:00 PM36 °FBroken clouds.16 mph75%30.07 "Hg5 mi
3:30 PM36 °FMore clouds than sun.14 mph81%30.07 "Hg6 mi
3:00 PM37 °FCloudy.16 mph70%30.07 "HgN/A
2:30 PM37 °FCloudy.17 mph75%30.07 "HgN/A
2:00 PM37 °FPartly sunny.17 mph75%30.07 "HgN/A
1:30 PM37 °FMostly cloudy.17 mph70%30.07 "HgN/A
1:00 PM37 °FPartly sunny.16 mph75%30.09 "HgN/A
12:30 PM37 °FPartly sunny.16 mph75%30.09 "HgN/A
12:00 PM37 °FPartly sunny.16 mph75%30.09 "Hg6 mi
11:30 AM37 °FPartly sunny.16 mph75%30.09 "Hg4 mi
11:00 AM37 °FPartly sunny.15 mph75%30.12 "Hg4 mi
10:30 AM37 °FBroken clouds.16 mph81%30.12 "Hg4 mi
10:00 AM37 °FBroken clouds.14 mph81%30.12 "Hg4 mi
9:30 AM36 °FFog.14 mph87%30.12 "Hg3 mi
9:00 AM36 °FDrizzle. Fog.13 mph87%30.12 "Hg3 mi
8:30 AM36 °FDrizzle. Fog.14 mph87%30.12 "Hg3 mi
8:00 AM36 °FDrizzle. Fog.14 mph87%30.12 "Hg3 mi
7:30 AM36 °FDrizzle. Fog.14 mph93%30.12 "Hg2 mi
7:00 AM36 °FFog.15 mph93%30.12 "Hg3 mi
6:30 AM36 °FFog.14 mph93%30.12 "Hg3 mi
6:00 AM36 °FFog.10 mph93%30.12 "Hg3 mi
5:30 AM36 °FFog.12 mph93%30.12 "Hg3 mi
5:00 AM36 °FFog.10 mph93%30.12 "Hg3 mi
4:30 AM36 °FFog.12 mph93%30.12 "Hg3 mi
4:00 AM36 °FFog.12 mph93%30.12 "Hg3 mi
3:30 AM36 °FMostly cloudy.13 mph87%30.12 "Hg4 mi
3:00 AM36 °FMostly cloudy.10 mph87%30.12 "Hg4 mi
2:30 AM36 °FMostly cloudy.12 mph87%30.15 "Hg4 mi
2:00 AM36 °FMostly cloudy.12 mph87%30.15 "Hg4 mi
1:30 AM36 °FMostly cloudy.12 mph93%30.15 "Hg4 mi
1:00 AM36 °FMostly cloudy.13 mph93%30.15 "Hg4 mi
12:30 AM37 °FFog.10 mph87%30.15 "Hg3 mi
12:00 AM37 °FOvercast.9 mph87%30.18 "Hg4 mi
11:30 PM
Nov 26
37 °FOvercast.10 mph87%30.18 "Hg4 mi
11:00 PM37 °FOvercast.10 mph87%30.18 "Hg4 mi
10:30 PM37 °FMostly cloudy.9 mph87%30.18 "Hg4 mi
10:00 PM37 °FOvercast.9 mph87%30.18 "Hg4 mi
Weather by CustomWeather, © 2014

See weather overviewHow to use our weather pages